Location: Eschertshofen
(49.3064°N, 11.5756°E)
Time: 11:10:29
(UTC+00:00)

ATLAS 3B R/B - Pass Details

Date: 18 September 2020
Orbit: 1016 x 1179 km, 63.8° (Epoch: 04 October)

Event Time Altitude Azimuth Distance (km) Brightness Sun altitude
Rises 17:39:23 0° 301° (WNW) 3,780 7.0 -4.0°
Reaches altitude 10° 17:42:33 10° 315° (NW) 2,844 5.8 -4.6°
Maximum altitude 17:47:54 24° 9° (N) 2,014 4.2 -5.4°
Drops below altitude 10° 17:53:23 10° 62° (ENE) 2,922 4.5 -6.3°
Enters shadow 17:55:34 - 72° (ENE) 3,557 4.9 -6.7°
